Back to catalog

CZ-4B R/B

AliveSSO
NORAD 28415·ROCKET BODY·🇨🇳 China

Launched Sep 8, 2004 from Taiyuan Satellite Launch Center

Loading…

Next Passes (next 24 hours)

TLE

FreshSource: Space-Track

Epoch: Sep 14, 2026, 12:46 UTC

1 28415U 04035C   26257.53237208  .00006141  00000-0  20002-3 0  9993
2 28415  97.3308 289.6411 0030497  20.0927 340.1507 15.31751304208792

Track CZ-4B R/B in real time with AllMySat

Download on the App Store